TimePST,TemperatureF,Dew PointF,Humidity,Sea Level PressureIn,VisibilityMPH,Wind Direction,Wind SpeedMPH,Gust SpeedMPH,PrecipitationIn,Events,Conditions,WindDirDegrees,DateUTC
12:56 AM,30.9,27.0,85,30.29,10.0,SSE,3.5,-,N/A,,Mostly Cloudy,160,2012-12-09 08:56:00
1:56 AM,32.0,27.0,82,30.30,10.0,Calm,Calm,-,N/A,,Overcast,0,2012-12-09 09:56:00
2:56 AM,30.9,27.0,85,30.32,10.0,ENE,3.5,-,N/A,,Overcast,60,2012-12-09 10:56:00
3:56 AM,30.0,28.0,92,30.33,10.0,Calm,Calm,-,0.00,,Mostly Cloudy,0,2012-12-09 11:56:00
4:56 AM,28.0,25.0,88,30.35,10.0,Calm,Calm,-,N/A,,Clear,0,2012-12-09 12:56:00
5:56 AM,28.9,27.0,92,30.35,10.0,SSE,3.5,-,N/A,,Overcast,160,2012-12-09 13:56:00
6:56 AM,26.1,25.0,96,30.38,10.0,SSE,4.6,-,N/A,,Mostly Cloudy,160,2012-12-09 14:56:00
7:56 AM,28.9,26.1,89,30.38,10.0,SSE,4.6,-,N/A,,Mostly Cloudy,150,2012-12-09 15:56:00
8:56 AM,32.0,28.0,85,30.41,10.0,Calm,Calm,-,N/A,,Overcast,0,2012-12-09 16:56:00
9:56 AM,35.1,28.9,78,30.40,10.0,SSE,4.6,-,N/A,,Overcast,160,2012-12-09 17:56:00
10:56 AM,39.0,28.0,65,30.38,10.0,SE,6.9,-,N/A,,Scattered Clouds,140,2012-12-09 18:56:00
11:56 AM,42.1,28.0,58,30.35,10.0,SSE,9.2,-,N/A,,Overcast,160,2012-12-09 19:56:00
12:56 PM,42.1,28.9,60,30.35,10.0,East,4.6,-,N/A,,Overcast,90,2012-12-09 20:56:00
1:56 PM,44.1,30.0,58,30.32,10.0,East,3.5,-,N/A,,Overcast,80,2012-12-09 21:56:00
2:56 PM,44.1,30.9,60,30.32,10.0,ENE,4.6,-,N/A,,Overcast,60,2012-12-09 22:56:00
3:56 PM,43.0,30.9,62,30.32,10.0,ENE,4.6,-,N/A,,Overcast,70,2012-12-09 23:56:00
4:56 PM,41.0,30.9,67,30.33,10.0,Calm,Calm,-,N/A,,Overcast,0,2012-12-10 00:56:00
6:56 PM,39.9,32.0,73,30.36,10.0,Calm,Calm,-,N/A,,Overcast,0,2012-12-10 02:56:00
7:56 PM,37.0,30.9,79,30.35,10.0,Calm,Calm,-,N/A,,Partly Cloudy,0,2012-12-10 03:56:00
8:56 PM,36.0,30.9,82,30.34,10.0,Calm,Calm,-,N/A,,Scattered Clouds,0,2012-12-10 04:56:00
9:56 PM,36.0,30.9,82,30.33,10.0,ENE,3.5,-,N/A,,Mostly Cloudy,70,2012-12-10 05:56:00
10:56 PM,33.1,30.0,89,30.35,10.0,SSE,3.5,-,N/A,,Clear,150,2012-12-10 06:56:00
11:56 PM,34.0,30.9,89,30.33,10.0,South,3.5,-,N/A,,Clear,190,2012-12-10 07:56:00